weather.gov     
National Weather Service

Terminal Aerodrome Forecast
NWS Homepage
This page is being discontinued on March 12, 2014.
The same data is available at this site. Please update your bookmarks.
Thank you, and we apologize for the inconvenience.
Please send an email to SR-SRH.Webmaster@noaa.gov with any concerns.


Current Version
Previous Version:    01  02  03  04  05  06  07  08  09  10  11  12  13  14  15  16  17  18  19  
[Printable]
676
FTUS45 KMSO 021120
TAFBTM
TAF
KBTM 021120Z 0212/0312 VRB05KT P6SM SKC
     FM022100 25012KT P6SM FEW120
     FM030200 VRB06KT P6SM SCT120=




676
FTUS45 KMSO 021120
TAFBTM
TAF
KBTM 021120Z 0212/0312 VRB05KT P6SM SKC
     FM022100 25012KT P6SM FEW120
     FM030200 VRB06KT P6SM SCT120=


U.S. Dept. of Commerce
NOAA National Weather Service
1325 East West Highway
Silver Spring, MD 20910
E-mail: w-nws.webmaster@noaa.gov
Page last modified: May 16, 2007
NATIONAL WEATHER SERVICE: for Safety, for Work, for Fun - FOR LIFE